This is the latest recevied weather packets stored in our database for station/object K2RMB. If no packets are shown the sender has not sent any weather packets the latest 10 day(s).
| Time | Temp. | Humidity | Pressure | Rain* | Wind** | Luminosity | Snow |
|---|---|---|---|---|---|---|---|
| 1777754738 | 10.56° C | 43% | 1011.5 hPa | 0 mm | - | 445 W/m² | - |
| 1777754436 | 10.56° C | 42% | 1011.5 hPa | 0 mm | - | 454 W/m² | - |
| 1777754132 | 10.56° C | 41% | 1011.5 hPa | 0 mm | - | 458 W/m² | - |
| 1777753830 | 10.56° C | 40% | 1011.5 hPa | 0 mm | - | 473 W/m² | - |
| 1777753525 | 10° C | 40% | 1011.5 hPa | 0 mm | - | 494 W/m² | - |
| 1777753224 | 11.11° C | 43% | 1011.8 hPa | 0 mm | - | 512 W/m² | - |
| 1777752920 | 11.67° C | 42% | 1011.8 hPa | 0 mm | - | 536 W/m² | - |
| 1777752616 | 11.67° C | 45% | 1011.5 hPa | 0 mm | - | 573 W/m² | - |
| 1777752312 | 11.67° C | 46% | 1011.5 hPa | 0 mm | - | 636 W/m² | - |
| 1777752011 | 11.11° C | 48% | 1011.5 hPa | 0 mm | - | 696 W/m² | - |
| 1777751708 | 11.11° C | 54% | 1011.5 hPa | 0 mm | - | 761 W/m² | - |
| 1777751403 | 11.11° C | 51% | 1011.1 hPa | 0 mm | - | 276 W/m² | - |
| 1777751100 | 10.56° C | 49% | 1011.5 hPa | 0 mm | - | 802 W/m² | - |
| 1777750796 | 10° C | 52% | 1011.8 hPa | 0 mm | - | 301 W/m² | - |
| 1777750494 | 10.56° C | 52% | 1011.5 hPa | 0 mm | - | 172 W/m² | - |
| 1777750189 | 11.11° C | 45% | 1011.8 hPa | 0 mm | - | 265 W/m² | - |
| 1777749886 | 10.56° C | 50% | 1011.8 hPa | 0 mm | - | 752 W/m² | - |
| 1777749583 | 10.56° C | 52% | 1011.8 hPa | 0 mm | - | 339 W/m² | - |
| 1777749281 | 11.11° C | 49% | 1011.8 hPa | 0 mm | - | 480 W/m² | - |
| 1777748978 | 11.11° C | 50% | 1011.8 hPa | 0 mm | - | 855 W/m² | - |
| 1777748675 | 11.11° C | 50% | 1011.8 hPa | 0 mm | - | 362 W/m² | - |
| 1777748372 | 11.11° C | 54% | 1011.8 hPa | 0 mm | - | 769 W/m² | - |
| 1777748067 | 11.67° C | 55% | 1011.8 hPa | 0 mm | - | 853 W/m² | - |
| 1777747765 | 11.11° C | 50% | 1011.5 hPa | 0 mm | - | 902 W/m² | - |
| 1777747460 | 10.56° C | 55% | 1011.8 hPa | 0 mm | - | 888 W/m² | - |
* Rain latest hour (hover to see other rain measurements)
** Current wind speed in m/s (hover to see current wind gust speed)